Miscellaneous Local Product
Issued by NWS Hastings, NE

Home | Current Version | Previous Version | Graphics & Text | Print | Product List | Glossary On
Versions: 1 2 3 4 5 6 7 8 9 10 11 12 13 14 15 16 17 18 19 20 21 22 23 24 25 26 27 28 29 30 31 32 33 34 35 36 37 38 39 40 41 42 43 44 45 46 47 48 49 50
000
AXUS43 KGID 172002
MISGRI

GID CWA HOURLY WEATHER ROUNDUP
NATIONAL WEATHER SERVICE HASTINGS NE
300 PM CDT WED SEP 17 2014

NOTE: "FAIR" INDICATES FEW OR NO CLOUDS BELOW 12,000 FEET WITH NO
SIGNIFICANT WEATHER AND/OR OBSTRUCTIONS TO VISIBILITY.

...SOUTH CENTRAL NEBRASKA...

CITY           SKY/WX    TMP DP  RH WIND       PRES   REMARKS
GRAND ISLAND   SUNNY     80  63  55 E10       29.91F
HASTINGS       MOSUNNY   78  61  55 SE9       29.90F
KEARNEY        MOSUNNY   79  63  57 E12       29.93R
ORD            SUNNY     81  62  52 E8        29.89F
YORK           SUNNY     77  66  69 SE8       29.91F
AURORA         SUNNY     79  63  57 SE6       29.91S
LEXINGTON      MOSUNNY   81  62  53 SE6       29.92S
HOLDREGE       MOSUNNY   81  59  47 SE7       29.91F
HEBRON         SUNNY     78  63  59 SE9       29.90F

...NEBRASKA PANHANDLE...

CITY           SKY/WX    TMP DP  RH WIND       PRES   REMARKS
CHADRON        SUNNY     84  49  29 NE5       29.93F
ALLIANCE       SUNNY     85  47  26 SE8       29.95F
SCOTTSBLUFF    SUNNY     87  41  19 VRB3      29.96F
SIDNEY         SUNNY     89  41  18 VRB7      29.98F

...WESTERN AND NORTH CENTRAL NEBRASKA...

CITY           SKY/WX    TMP DP  RH WIND       PRES   REMARKS
VALENTINE      MOSUNNY   83  54  36 NE10      29.92F
AINSWORTH      SUNNY     79  51  38 E7        29.94S
ONEILL         SUNNY     80  59  49 E10       29.92S
BROKEN BOW     SUNNY     84  57  39 SE8       29.91F
IMPERIAL       SUNNY     88  50  27 S9        29.92F
NORTH PLATTE   SUNNY     84  60  44 E12       29.91F
MCCOOK         SUNNY     84  61  45 E7        29.91F

...EASTERN NEBRASKA...

CITY           SKY/WX    TMP DP  RH WIND       PRES   REMARKS
NORFOLK        SUNNY     81  57  43 E9        29.90F
SO SIOUX CITY  SUNNY     79  60  52 SE5       29.90F
TEKAMAH        SUNNY     80  58  46 CALM      29.89F
ALBION         HAZE      79  61  54 SE8       29.91S VSB 1
OMAHA EPPLEY   MOSUNNY   77  60  55 SE6       29.90F
OFFUTT AFB     SUNNY     79  66  63 E7        29.90F
MILLARD        SUNNY     78  64  61 SE7       29.90S
LINCOLN        SUNNY     78  63  59 VRB7      29.91F
NEBRASKA CITY  SUNNY     76  56  48 E8        29.91F
BEATRICE       SUNNY     79  65  63 SE7       29.90F
FALLS CITY     MOSUNNY   77  66  68 SE8       29.90S

...NORTHERN KANSAS...

CITY           SKY/WX    TMP DP  RH WIND       PRES   REMARKS
GOODLAND       SUNNY     89  53  29 S9G18     29.94F
HILL CITY      SUNNY     84  63  49 E8        29.89F
NORTON         CLEAR     82  55  39 E6        29.90F
PHILLIPSBURG   SUNNY     82  61  47 E12G17    29.89F
SMITH CENTER   SUNNY     81  63  54 SE8       29.90F
BELOIT         SUNNY     82  66  57 E9        29.87F
HAYS           SUNNY     84  66  54 E10       29.87F
RUSSELL        SUNNY     85  67  54 E10       29.86F
CONCORDIA      SUNNY     76  67  73 E13       29.89F
SALINA         SUNNY     85  68  56 NE5       29.87F
TOPEKA         CLOUDY    76  68  76 E7        29.90F



USA.gov is the U.S. government's official web portal to all federal, state and local government web resources and services.